GW1524 Weather Reports


time (UTC)temp
C
wind
direction
speed
KPH
gust
KPH
rain 1hr
cm
rain 24hr
cm
rain mn
cm
humidity
%
barometer
mb
20260901113028 17 16 1.6 4.8 2.41 2.95 2.95 99 1017.7
20260901112028 17 35 1.6 4.8 2.13 2.57 2.57 99 1017.9
20260901111054 17 72 3.2 4.8 1.50 1.80 1.80 99 1018.0
20260901110028 17 331 3.2 4.8 0.66 0.76 0.76 99 1017.6
20260901105029 17 305 1.6 4.8 0.71 0.71 0.71 99 1016.9
20260901104029 17 339 1.6 3.2 0.66 0.66 0.66 99 1016.7
20260901103029 17 67 3.2 3.2 0.53 0.53 0.53 99 1017.1
20260901102030 17 338 1.6 3.2 0.43 0.43 0.43 99 1017.3
20260901101030 17 33 1.6 3.2 0.30 0.30 0.30 99 1017.0
20260901100030 17 3 0.0 1.6 0.13 0.13 0.13 99 1017.1
20260901095055 17 255 0.0 1.6 0.00 0.00 0.00 99 1017.1
20260901094030 17 314 0.0 1.6 0.00 0.00 0.00 99 1017.0
20260901093030 17 344 0.0 1.6 0.00 0.00 0.00 98 1017.1
20260901092030 17 358 0.0 1.6 0.00 0.00 0.00 98 1017.3
20260901091056 17 1 0.0 3.2 0.00 0.00 0.00 98 1017.2
20260901090031 17 344 0.0 1.6 0.00 0.00 0.00 98 1017.4
20260901085031 17 45 0.0 1.6 0.00 0.00 0.00 98 1017.5
20260901084031 17 22 0.0 0.0 0.00 0.00 0.00 98 1017.5
20260901083031 17 333 0.0 1.6 0.00 0.00 0.00 98 1017.7
20260901082031 17 338 0.0 1.6 0.00 0.00 0.00 98 1017.7
20260901081032 17 328 0.0 3.2 0.00 0.00 0.00 98 1017.7
20260901080032 17 41 0.0 1.6 0.00 0.00 0.00 98 1017.7
20260901075032 17 294 0.0 1.6 0.00 0.00 0.00 98 1017.6
20260901074058 17 254 1.6 3.2 0.00 0.00 0.00 98 1017.8
20260901073032 17 100 0.0 1.6 0.00 0.00 0.00 98 1017.9
20260901072123 17 285 1.6 3.2 0.00 0.00 0.00 98 1017.8
20260901071033 17 289 1.6 3.2 0.00 0.00 0.00 98 1017.6
20260901070058 17 10 0.0 1.6 0.00 0.00 0.00 97 1017.9
20260901065034 17 333 0.0 1.6 0.00 0.00 0.00 97 1018.1
20260901064034 17 358 0.0 0.0 0.00 0.00 0.00 97 1018.5
20260901063059 17 5 1.6 1.6 0.00 0.00 0.00 97 1018.7
20260901062035 17 44 1.6 1.6 0.00 0.00 0.00 97 1018.7
20260901061034 17 320 1.6 1.6 0.00 0.00 0.00 96 1018.7
20260901060045 17 325 0.0 1.6 0.00 0.00 0.00 96 1018.7
20260901055021 17 347 0.0 1.6 0.00 0.00 0.00 96 1019.0
20260901054046 17 336 1.6 3.2 0.00 0.00 0.00 95 1018.8
20260901053021 17 18 0.0 1.6 0.00 0.00 0.00 95 1018.6
20260901052021 17 0 0.0 1.6 0.00 0.00 0.00 95 1018.8
20260901051046 17 341 0.0 1.6 0.00 0.00 0.00 95 1019.0
20260901050047 17 46 0.0 3.2 0.00 0.00 0.00 95 1019.1
20260901045047 17 59 0.0 1.6 0.00 0.00 0.00 95 1019.2
20260901044022 17 11 0.0 1.6 0.00 0.00 0.00 94 1019.2
20260901043022 17 316 1.6 3.2 0.00 0.00 0.00 94 1019.1
20260901042023 17 332 1.6 1.6 0.00 0.00 0.00 94 1018.9
20260901041023 17 300 0.0 3.2 0.00 0.00 0.00 94 1018.8
20260901040022 17 26 0.0 1.6 0.00 0.00 0.00 94 1018.9
20260901035023 17 59 0.0 3.2 0.00 0.00 0.00 95 1018.9
20260901034023 17 79 1.6 3.2 0.00 0.00 0.00 95 1018.9
20260901033023 17 61 0.0 1.6 0.00 0.00 0.00 94 1019.0
20260901032024 17 330 0.0 1.6 0.00 0.00 0.00 94 1019.1
20260901031023 18 4 0.0 0.0 0.00 0.00 0.00 93 1019.3
20260901030023 18 11 0.0 1.6 0.00 0.00 0.00 92 1019.3
20260901025025 18 323 1.6 3.2 0.00 0.00 0.00 92 1019.5
20260901024050 18 324 0.0 3.2 0.00 0.00 0.00 92 1019.5
20260901023049 18 1 0.0 1.6 0.00 0.00 0.00 93 1019.5
20260901022024 18 17 0.0 1.6 0.00 0.00 0.00 92 1019.5
20260901021022 18 316 0.0 3.2 0.00 0.00 0.00 92 1019.5
20260901020022 17 328 0.0 3.2 0.00 0.00 0.00 92 1019.5
20260901015022 17 315 0.0 3.2 0.00 0.00 0.00 92 1019.3
20260901014023 18 283 1.6 3.2 0.00 0.00 0.00 92 1019.3
20260901013023 18 294 1.6 3.2 0.00 0.00 0.00 91 1019.3
20260901012023 18 296 1.6 3.2 0.00 0.00 0.00 91 1019.4
20260901011023 18 355 0.0 1.6 0.00 0.00 0.00 91 1019.4
20260901010114 18 298 0.0 1.6 0.00 0.00 0.00 90 1019.4
20260901005021 18 293 1.6 3.2 0.00 0.00 0.00 90 1019.4
20260901004021 18 325 0.0 3.2 0.00 0.00 0.00 89 1019.4
20260901003021 18 62 0.0 1.6 0.00 0.00 0.00 89 1019.5
20260901002021 18 309 1.6 3.2 0.00 0.00 0.00 88 1019.5
20260901001021 18 309 1.6 3.2 0.00 0.00 0.00 87 1019.4
20260901000022 18 323 1.6 3.2 0.00 0.00 0.00 86 1019.5
20260831235112 18 51 0.0 3.2 0.00 0.00 0.00 86 1019.4
20260831234022 19 103 0.0 1.6 0.00 0.00 0.00 85 1019.4
20260831233047 19 50 1.6 3.2 0.00 0.00 0.00 85 1019.4
20260831232023 19 69 0.0 3.2 0.00 0.00 0.00 84 1019.5
20260831231022 19 21 0.0 3.2 0.00 0.00 0.00 84 1019.7
20260831230048 20 63 0.0 3.2 0.00 0.00 0.00 83 1019.9
20260831225023 20 129 0.0 3.2 0.00 0.00 0.00 84 1019.9
20260831224023 20 115 0.0 4.8 0.00 0.00 0.00 82 1019.9
20260831223023 20 115 1.6 3.2 0.00 0.00 0.00 82 1019.9
20260831222024 20 147 1.6 3.2 0.00 0.00 0.00 80 1020.0
20260831221021 20 141 1.6 4.8 0.00 0.00 0.00 83 1019.9
20260831220021 20 133 0.0 4.8 0.00 0.00 0.00 84 1019.9
20260831215021 21 6 0.0 3.2 0.00 0.00 0.00 82 1019.8
20260831214021 21 48 1.6 1.6 0.00 0.00 0.00 80 1019.8
20260831213021 21 150 1.6 4.8 0.00 0.00 0.00 79 1019.8
20260831212111 21 312 1.6 3.2 0.00 0.00 0.00 79 1019.8
20260831211021 21 129 1.6 3.2 0.00 0.00 0.00 79 1019.8
20260831210022 21 253 1.6 6.4 0.00 0.00 0.00 75 1019.9
20260831205022 22 294 1.6 3.2 0.00 0.00 0.00 75 1019.9
20260831204022 22 255 1.6 3.2 0.00 0.00 0.00 76 1019.8
20260831203022 22 0 1.6 4.8 0.00 0.00 0.00 75 1019.8
20260831202023 21 302 1.6 3.2 0.00 0.00 0.00 74 1019.9
20260831201048 21 254 1.6 4.8 0.00 0.00 0.00 74 1019.9
20260831200048 22 355 1.6 3.2 0.00 0.00 0.00 74 1020.0
20260831195023 22 259 3.2 6.4 0.00 0.00 0.00 71 1020.1
20260831194023 22 257 3.2 6.4 0.00 0.00 0.00 72 1020.2
20260831193023 22 282 1.6 6.4 0.00 0.00 0.00 72 1020.4
20260831192024 22 258 3.2 6.4 0.00 0.00 0.00 72 1020.5
20260831191021 21 311 1.6 4.8 0.00 0.00 0.00 74 1020.5
20260831190021 21 268 1.6 4.8 0.00 0.00 0.00 73 1020.7
20260831185022 21 273 1.6 4.8 0.00 0.13 0.00 75 1020.8
20260831184021 21 94 1.6 3.2 0.00 0.13 0.00 74 1020.7
20260831183021 22 267 1.6 4.8 0.00 0.13 0.00 72 1020.8
20260831182022 22 274 1.6 4.8 0.00 0.13 0.00 73 1020.9
20260831181022 22 264 1.6 4.8 0.00 0.13 0.00 75 1020.9
20260831180047 22 329 1.6 6.4 0.00 0.13 0.00 73 1020.8
20260831175022 21 304 1.6 6.4 0.00 0.13 0.00 73 1020.9
20260831174022 21 271 3.2 4.8 0.00 0.13 0.00 73 1020.8
20260831173023 21 271 1.6 4.8 0.00 0.13 0.00 71 1020.9
20260831172023 21 246 1.6 3.2 0.00 0.13 0.00 69 1021.1
20260831171023 22 274 1.6 4.8 0.00 0.13 0.00 72 1021.4
20260831170023 22 286 1.6 4.8 0.00 0.13 0.00 68 1021.5
20260831165023 21 237 1.6 4.8 0.00 0.13 0.00 70 1021.5
20260831164021 21 248 0.0 3.2 0.00 0.13 0.00 70 1021.4
20260831163021 21 287 1.6 3.2 0.00 0.13 0.00 70 1021.5
20260831162021 21 271 3.2 6.4 0.00 0.13 0.00 70 1021.6
20260831161021 21 352 1.6 4.8 0.00 0.13 0.00 70 1021.7
20260831160021 21 173 1.6 3.2 0.00 0.13 0.00 74 1021.9
20260831155021 21 302 1.6 4.8 0.00 0.13 0.00 70 1022.0
20260831154022 21 46 0.0 1.6 0.00 0.13 0.00 71 1022.0
20260831153022 21 283 1.6 3.2 0.00 0.13 0.00 68 1021.9
20260831152022 21 271 1.6 3.2 0.00 0.13 0.00 74 1021.8
20260831151022 20 340 1.6 3.2 0.00 0.13 0.00 75 1021.8
20260831150048 20 352 3.2 3.2 0.00 0.13 0.00 77 1021.7
20260831145023 20 19 1.6 3.2 0.00 0.13 0.00 78 1021.7
20260831144023 20 321 1.6 3.2 0.00 0.13 0.00 77 1021.9
20260831143023 19 19 1.6 3.2 0.00 0.13 0.00 79 1021.8
20260831142023 19 26 1.6 4.8 0.00 0.13 0.00 80 1021.8
20260831141023 19 354 1.6 3.2 0.00 0.13 0.00 80 1021.7
20260831140048 18 346 1.6 1.6 0.00 0.13 0.00 81 1021.7
20260831135024 18 345 1.6 3.2 0.00 0.13 0.00 82 1021.6
20260831134023 18 32 1.6 3.2 0.00 0.13 0.00 84 1021.5
20260831133023 18 44 1.6 3.2 0.00 0.13 0.00 86 1021.6
20260831132050 17 346 1.6 3.2 0.00 0.13 0.00 88 1021.5
20260831131025 17 11 1.6 3.2 0.00 0.13 0.00 89 1021.6
20260831130025 16 36 1.6 3.2 0.00 0.13 0.00 92 1021.8
20260831125025 16 24 1.6 3.2 0.00 0.13 0.00 93 1021.8
20260831124025 16 347 1.6 1.6 0.00 0.13 0.00 94 1021.8
20260831123025 16 26 1.6 1.6 0.00 0.13 0.00 96 1021.9
20260831122025 15 6 1.6 3.2 0.00 0.13 0.00 97 1021.8
20260831121026 15 50 1.6 3.2 0.00 0.13 0.00 98 1021.8
20260831120051 15 6 0.0 1.6 0.00 0.13 0.00 98 1021.9
20260831115026 15 63 0.0 1.6 0.00 0.13 0.00 98 1021.7
20260831114026 15 279 0.0 1.6 0.00 0.13 0.00 98 1021.7